Regional Weather Roundup
Issued by NWS

Home | Current Version | Previous Version | Text Only | Print | Product List | Glossary On
Versions: 1 2 3 4 5 6 7 8 9 10 11 12 13 14 15 16 17 18 19 20 21 22 23 24 25 26 27 28 29 30 31 32 33 34 35 36 37 38 39 40 41 42 43 44 45 46 47 48 49 50
000
ASUS43 KDTX 261201
RWRMI
MICHIGAN HOURLY REGIONAL WEATHER ROUNDUP
NATIONAL WEATHER SERVICE DETROIT/PONTIAC MI
800 AM EDT THU MAY 26 2016

NOTE: "FAIR" INDICATES FEW OR NO CLOUDS BELOW 12,000 FEET WITH NO
SIGNIFICANT WEATHER AND/OR OBSTRUCTION TO VISIBILITY.

MIZ047>049-052>055-059>063-066>070-074>076-081>083-261300-
SOUTHEAST LOWER MICHIGAN

CITY           SKY/WX    TMP DP  RH WIND       PRES   REMARKS
ADRIAN         CLOUDY    68  63  84 SW5       30.00R
6HR MIN TEMP:  66; 6HR MAX TEMP:  71;

ALMA           SUNNY     65  64  96 S6        29.95R
ANN ARBOR      CLOUDY    68  63  84 SW3       29.99R
BAD AXE        CLOUDY    64  61  91 S3        29.97S
CARO           CLOUDY    66  62  86 CALM      29.95S
DETROIT CITY   PTSUNNY   69  63  81 S5        29.99R
6HR MIN TEMP:  69; 6HR MAX TEMP:  73; 6HR PCP: TRACE;

DETROIT        CLOUDY    69  64  84 S3        29.99R
6HR MIN TEMP:  68; 6HR MAX TEMP:  71; 6HR PCP:  0.02;

FLINT          PTSUNNY   70  62  76 SW8       29.96S
6HR MIN TEMP:  66; 6HR MAX TEMP:  76; 6HR PCP: TRACE;

GROSSE ILE     CLOUDY    68  64  88 CALM      29.97S
HILLSDALE      CLOUDY    65  62  89 S3        30.01R
HOWELL         CLOUDY    67  64  91 S6        29.98R

CITY           SKY/WX    TMP DP  RH WIND       PRES   REMARKS
JACKSON        SUNNY     67  63  87 S7        29.99R
6HR MIN TEMP:  63; 6HR MAX TEMP:  70; 6HR PCP:  0.01;

LAMBERTVILLE   CLOUDY    71  64  78 SW7       30.00R
6HR MIN TEMP:  68; 6HR MAX TEMP:  73;

LANSING        SUNNY     66  62  87 S8        29.97R
6HR MIN TEMP:  63; 6HR MAX TEMP:  67; 6HR PCP:  0.19;

LAPEER         FAIR      67  61  80 CALM      29.97S
6HR MIN TEMP:  64; 6HR MAX TEMP:  72;

MASON          SUNNY     65  62  90 SE5       29.98R
MONROE         CLOUDY    69  64  85 S8        29.98S
6HR MIN TEMP:  66; 6HR MAX TEMP:  71;

MT. CLEMENS    PTSUNNY   67  65  95 SE6       29.96S
6HR MIN TEMP:  66; 6HR MAX TEMP:  71; 6HR PCP: TRACE;

PONTIAC        PTSUNNY   68  63  84 CALM      29.97S
6HR MIN TEMP:  66; 6HR MAX TEMP:  72;

PORT HOPE        N/A     65  61  87 SE3       29.95R
6HR MIN TEMP:  59; 6HR MAX TEMP:  68;

PORT HURON     CLOUDY    66  63  88 S5        29.98S
TRI CITIES     MOSUNNY   68  63  84 S8        29.95R
6HR MIN TEMP:  63; 6HR MAX TEMP:  68; 6HR PCP:  0.01;

MIDLAND        CLOUDY    64  63  97 S3        29.94R
6HR MIN TEMP:  59; 6HR MAX TEMP:  64;

TROY           CLOUDY    70  64  82 S7        29.99F
SAGINAW HB     CLOUDY    66  63  88 S5        29.95R
$$
MIZ043>046-050>051-056>058-064>065-071>073-077>080-261300-
SOUTHWEST LOWER MICHIGAN

CITY           SKY/WX    TMP DP  RH WIND       PRES   REMARKS
BATTLE CREEK   SUNNY     66  64  93 S8        29.98R
6HR MIN TEMP:  62; 6HR MAX TEMP:  66; 6HR PCP:  0.18;

BENTON HARBOR  PTSUNNY   69  65  86 S9        29.95R
6HR MIN TEMP:  65; 6HR MAX TEMP:  69;

BIG RAPIDS     PTSUNNY   64  64  97 CALM      29.93R
6HR MIN TEMP:  62; 6HR MAX TEMP:  64; 6HR PCP:  0.03;

COLDWATER      SUNNY     69  64  83 SW7       29.99R
6HR MIN TEMP:  61; 6HR MAX TEMP:  69;

FREMONT        FAIR      65  65 100 S5        29.92S
6HR MIN TEMP:  62; 6HR MAX TEMP:  65;

HOLLAND        SUNNY     68  64  87 S10       29.94R
6HR MIN TEMP:  64; 6HR MAX TEMP:  68;

GRAND RAPIDS   PTSUNNY   69  64  84 S10       29.94R
6HR MIN TEMP:  64; 6HR MAX TEMP:  69; 6HR PCP: TRACE;

IONIA          FAIR      66  62  87 S8        29.95R
6HR MIN TEMP:  63; 6HR MAX TEMP:  66; 6HR PCP:  0.08;

KALAMAZOO      SUNNY     68  64  87 S10       29.97R
6HR MIN TEMP:  64; 6HR MAX TEMP:  68; 6HR PCP:  0.02;

MARSHALL       SUNNY     67  64  91 S5        29.98R
6HR MIN TEMP:  63; 6HR MAX TEMP:  67; 6HR PCP:  0.08;

MOUNT PLEASANT MOSUNNY   65  64  98 S3        29.93S
6HR MIN TEMP:  61; 6HR MAX TEMP:  65; 6HR PCP:  0.19;

MUSKEGON       MOSUNNY   69  63  81 S17G25    29.92R
6HR MIN TEMP:  65; 6HR MAX TEMP:  69;

SOUTH HAVEN    SUNNY     68  66  94 S7        29.95R
$$
MIZ016>042-261300-
NORTHERN LOWER MICHIGAN

CITY           SKY/WX    TMP DP  RH WIND       PRES   REMARKS
ALPENA         CLOUDY    57  53  86 VRB3      29.91F
6HR MIN TEMP:  55; 6HR MAX TEMP:  59; 6HR PCP: TRACE;

BEAVER ISLAND  CLOUDY    59  58  97 SE6       29.87S
6HR MIN TEMP:  57; 6HR MAX TEMP:  62;

BELLAIRE       CLOUDY    64  61  91 CALM      29.89R
6HR MIN TEMP:  59; 6HR MAX TEMP:  66;

CADILLAC       CLOUDY    63  62  95 S8        29.92R
CHARLEVOIX     CLOUDY    64  62  93 S7        29.90S
FRANKFORT      CLOUDY    66  63  91 S5        29.88S
GAYLORD        PTSUNNY   62  59  90 SW7       29.91R
6HR MIN TEMP:  60; 6HR MAX TEMP:  62; 6HR PCP:  0.04;

HARBOR SPRINGS CLOUDY    60  59  95 E6        29.89R
HOUGHTON LAKE  CLOUDY    64  60  87 S7        29.93R
6HR MIN TEMP:  58; 6HR MAX TEMP:  64; 6HR PCP:  0.09;

MANISTEE       MOSUNNY   64  61  88 S5        29.90S
OSCODA         CLOUDY    59  56  89 CALM      29.93S
6HR MIN TEMP:  56; 6HR MAX TEMP:  59;

PELLSTON       CLOUDY    59  57  93 SE5       29.89R
6HR MIN TEMP:  59; 6HR MAX TEMP:  63; 6HR PCP:  0.04;

TRAVERSE CITY  MOSUNNY   68  62  81 VRB7      29.87R
6HR MIN TEMP:  65; 6HR MAX TEMP:  68; 6HR PCP:  0.02;

$$
MIZ007>008-015-261300-
EASTERN UPPER MICHIGAN

CITY           SKY/WX    TMP DP  RH WIND       PRES   REMARKS
KINROSS          N/A     57  55  94 E12       29.89F
6HR MIN TEMP:  55; 6HR MAX TEMP:  59;

MACKINAC ISLAN CLOUDY    51  51 100 E13G18    29.89R
6HR MIN TEMP:  50; 6HR MAX TEMP:  55; 6HR PCP:  0.03;

NEWBERRY       CLOUDY    56  55  97 SE9       29.86S
6HR MIN TEMP:  56; 6HR MAX TEMP:  62; 6HR PCP:  0.06;

S. S. MARIE    CLOUDY    57  54  89 E6        29.90R
6HR MIN TEMP:  57; 6HR MAX TEMP:  60; 6HR PCP:  0.16;

MUNISING         N/A     61  59  93 S8        29.81F
6HR MIN TEMP:  48; 6HR MAX TEMP:  62; 6HR PCP:  0.01;

$$
MIZ004>006-011>014-085-261300-
CENTRAL UPPER MICHIGAN

CITY           SKY/WX    TMP DP  RH WIND       PRES   REMARKS
MANISTIQUE     FOG       55  54  97 SE7       29.85F VSB 1/2
6HR MIN TEMP:  54; 6HR MAX TEMP:  58; 6HR PCP:  0.29;

ESCANABA       CLOUDY    57  55  94 S6        29.83S VSB 1/4
6HR MIN TEMP:  55; 6HR MAX TEMP:  57;

MENOMINEE      CLOUDY    57  57 100 S3        29.86R VSB 1/2
6HR MIN TEMP:  57; 6HR MAX TEMP:  61;

SAWYER-GWINN   CLOUDY    59  57  94 S9        29.82R FOG
$$
MIZ001>003-009>011-084-261300-
WESTERN UPPER MICHIGAN

CITY           SKY/WX    TMP DP  RH WIND       PRES   REMARKS
IRON MOUNTAIN  CLOUDY    63  60  90 CALM      29.83R
6HR MIN TEMP:  59; 6HR MAX TEMP:  63; 6HR PCP: TRACE;

HOUGHTON       FOG       53  52  96 NE5       29.81R VSB<1/4
6HR MIN TEMP:  50; 6HR MAX TEMP:  56; 6HR PCP:  0.19;

COPPER HARBOR    N/A     48  47  96 VRB5      29.79F
6HR MIN TEMP:  47; 6HR MAX TEMP:  58; 6HR PCP:  0.28;

IRONWOOD       CLOUDY    55  54  94 CALM      29.81R
6HR MIN TEMP:  52; 6HR MAX TEMP:  55;

$$

ABBREVIATIONS USED IN REMARKS
   TC - TEMPERATURE IN CELSIUS
  WCI - WIND CHILL INDEX
   HX - HEAT INDEX
  VSB - VISIBILITY





USA.gov is the U.S. government's official web portal to all federal, state and local government web resources and services.